Year,Month,Day,Hour,Minute,Value (Times are PST for temperature in C)
2009,02,21,00,00,-1.30
2009,02,21,00,01,-1.30
2009,02,21,00,02,-1.30
2009,02,21,00,03,-1.30
2009,02,21,00,04,-1.30
2009,02,21,00,05,-1.30
2009,02,21,00,06,-1.30
2009,02,21,00,07,-1.30
2009,02,21,00,08,-1.40
2009,02,21,00,09,-1.40
2009,02,21,00,10,-1.40
2009,02,21,00,11,-1.40
2009,02,21,00,12,-1.40
2009,02,21,00,13,-1.40
2009,02,21,00,14,-1.40
2009,02,21,00,15,-1.40
2009,02,21,00,16,-1.40
2009,02,21,00,17,-1.40
2009,02,21,00,18,-1.40
2009,02,21,00,19,-1.40
2009,02,21,00,20,-1.40
2009,02,21,00,21,-1.50
2009,02,21,00,22,-1.50
2009,02,21,00,23,-1.50
2009,02,21,00,24,-1.50
2009,02,21,00,25,-1.50
2009,02,21,00,26,-1.50
2009,02,21,00,27,-1.50
2009,02,21,00,28,-1.50
2009,02,21,00,29,-1.50
2009,02,21,00,30,-1.50
2009,02,21,00,31,-1.50
2009,02,21,00,32,-1.50
2009,02,21,00,33,-1.60
2009,02,21,00,34,-1.60
2009,02,21,00,35,-1.60
2009,02,21,00,36,-1.60
2009,02,21,00,37,-1.60
2009,02,21,00,38,-1.60
2009,02,21,00,39,-1.60
2009,02,21,00,40,-1.60
2009,02,21,00,41,-1.60
2009,02,21,00,42,-1.60
2009,02,21,00,43,-1.60
2009,02,21,00,44,-1.60
2009,02,21,00,45,-1.60
2009,02,21,00,46,-1.60
2009,02,21,00,47,-1.60
2009,02,21,00,48,-1.60
2009,02,21,00,49,-1.60
2009,02,21,00,50,-1.60
2009,02,21,00,51,-1.60
2009,02,21,00,52,-1.60
2009,02,21,00,53,-1.70
2009,02,21,00,54,-1.70
2009,02,21,00,55,-1.70
2009,02,21,00,56,-1.70
2009,02,21,00,57,-1.70
2009,02,21,00,58,-1.70
2009,02,21,00,59,-1.70
2009,02,21,01,00,-1.70
2009,02,21,01,01,-1.70
2009,02,21,01,02,-1.70
2009,02,21,01,03,-1.70
2009,02,21,01,04,-1.70
2009,02,21,01,05,-1.70
2009,02,21,01,06,-1.70
2009,02,21,01,07,-1.70
2009,02,21,01,08,-1.70
2009,02,21,01,09,-1.70
2009,02,21,01,10,-1.70
2009,02,21,01,11,-1.70
2009,02,21,01,12,-1.70
2009,02,21,01,13,-1.70
2009,02,21,01,14,-1.70
2009,02,21,01,15,-1.70
2009,02,21,01,16,-1.70
2009,02,21,01,17,-1.70
2009,02,21,01,18,-1.70
2009,02,21,01,19,-1.70
2009,02,21,01,20,-1.70
2009,02,21,01,21,-1.70
2009,02,21,01,22,-1.70
2009,02,21,01,23,-1.70
2009,02,21,01,24,-1.70
2009,02,21,01,25,-1.70
2009,02,21,01,26,-1.70
2009,02,21,01,27,-1.70
2009,02,21,01,28,-1.80
2009,02,21,01,29,-1.80
2009,02,21,01,30,-1.80
2009,02,21,01,31,-1.80
2009,02,21,01,32,-1.80
2009,02,21,01,33,-1.80
2009,02,21,01,34,-1.80
2009,02,21,01,35,-1.80
2009,02,21,01,36,-1.80
2009,02,21,01,37,-1.80
2009,02,21,01,38,-1.80
2009,02,21,01,39,-1.80
2009,02,21,01,40,-1.80
2009,02,21,01,41,-1.80
2009,02,21,01,42,-1.80
2009,02,21,01,43,-1.80
2009,02,21,01,44,-1.80
2009,02,21,01,45,-1.80
2009,02,21,01,46,-1.80
2009,02,21,01,47,-1.80
2009,02,21,01,48,-1.80
2009,02,21,01,49,-1.80
2009,02,21,01,50,-1.80
2009,02,21,01,51,-1.80
2009,02,21,01,52,-1.80
2009,02,21,01,53,-1.80
2009,02,21,01,54,-1.80
2009,02,21,01,55,-1.80
2009,02,21,01,56,-1.80
2009,02,21,01,57,-1.80
2009,02,21,01,58,-1.80
2009,02,21,01,59,-1.80
2009,02,21,02,00,-1.80
2009,02,21,02,01,-1.80
2009,02,21,02,02,-1.80
2009,02,21,02,03,-1.80
2009,02,21,02,04,-1.80
2009,02,21,02,05,-1.80
2009,02,21,02,06,-1.80
2009,02,21,02,07,-1.80
2009,02,21,02,08,-1.80
2009,02,21,02,09,-1.80
2009,02,21,02,10,-1.80
2009,02,21,02,11,-1.80
2009,02,21,02,12,-1.80
2009,02,21,02,13,-1.80
2009,02,21,02,14,-1.80
2009,02,21,02,15,-1.80
2009,02,21,02,16,-1.80
2009,02,21,02,17,-1.80
2009,02,21,02,18,-1.80
2009,02,21,02,19,-1.80
2009,02,21,02,20,-1.80
2009,02,21,02,21,-1.80
2009,02,21,02,22,-1.80
2009,02,21,02,23,-1.80
2009,02,21,02,24,-1.80
2009,02,21,02,25,-1.80
2009,02,21,02,26,-1.80
2009,02,21,02,27,-1.80
2009,02,21,02,28,-1.80
2009,02,21,02,29,-1.80
2009,02,21,02,30,-1.80
2009,02,21,02,31,-1.80
2009,02,21,02,32,-1.80
2009,02,21,02,33,-1.80
2009,02,21,02,34,-1.80
2009,02,21,02,35,-1.80
2009,02,21,02,36,-1.80
2009,02,21,02,37,-1.80
2009,02,21,02,38,-1.80
2009,02,21,02,39,-1.80
2009,02,21,02,40,-1.80
2009,02,21,02,41,-1.80
2009,02,21,02,42,-1.80
2009,02,21,02,43,-1.80
2009,02,21,02,44,-1.80
2009,02,21,02,45,-1.80
2009,02,21,02,46,-1.90
2009,02,21,02,47,-1.90
2009,02,21,02,48,-1.90
2009,02,21,02,49,-1.90
2009,02,21,02,50,-1.90
2009,02,21,02,51,-1.90
2009,02,21,02,52,-1.90
2009,02,21,02,53,-1.90
2009,02,21,02,54,-1.90
2009,02,21,02,55,-1.90
2009,02,21,02,56,-1.90
2009,02,21,02,57,-1.90
2009,02,21,02,58,-1.90
2009,02,21,02,59,-1.90
2009,02,21,03,00,-1.90
2009,02,21,03,01,-1.90
2009,02,21,03,02,-1.90
2009,02,21,03,03,-1.90
2009,02,21,03,04,-1.80
2009,02,21,03,05,-1.80
2009,02,21,03,06,-1.80
2009,02,21,03,07,-1.80
2009,02,21,03,08,-1.80
2009,02,21,03,09,-1.80
2009,02,21,03,10,-1.80
2009,02,21,03,11,-1.80
2009,02,21,03,12,-1.80
2009,02,21,03,13,-1.80
2009,02,21,03,14,-1.80
2009,02,21,03,15,-1.80
2009,02,21,03,16,-1.80
2009,02,21,03,17,-1.80
2009,02,21,03,18,-1.80
2009,02,21,03,19,-1.80
2009,02,21,03,20,-1.80
2009,02,21,03,21,-1.80
2009,02,21,03,22,-1.80
2009,02,21,03,23,-1.80
2009,02,21,03,24,-1.80
2009,02,21,03,25,-1.80
2009,02,21,03,26,-1.80
2009,02,21,03,27,-1.80
2009,02,21,03,28,-1.80
2009,02,21,03,29,-1.80
2009,02,21,03,30,-1.80
2009,02,21,03,31,-1.80
2009,02,21,03,32,-1.80
2009,02,21,03,33,-1.80
2009,02,21,03,34,-1.80
2009,02,21,03,35,-1.80
2009,02,21,03,36,-1.80
2009,02,21,03,37,-1.80
2009,02,21,03,38,-1.80
2009,02,21,03,39,-1.80
2009,02,21,03,40,-1.80
2009,02,21,03,41,-1.80
2009,02,21,03,42,-1.80
2009,02,21,03,43,-1.80
2009,02,21,03,44,-1.80
2009,02,21,03,45,-1.70
2009,02,21,03,46,-1.70
2009,02,21,03,47,-1.70
2009,02,21,03,48,-1.70
2009,02,21,03,49,-1.70
2009,02,21,03,50,-1.70
2009,02,21,03,51,-1.70
2009,02,21,03,52,-1.70
2009,02,21,03,53,-1.70
2009,02,21,03,54,-1.70
2009,02,21,03,55,-1.70
2009,02,21,03,56,-1.70
2009,02,21,03,57,-1.70
2009,02,21,03,58,-1.70
2009,02,21,03,59,-1.70
2009,02,21,04,00,-1.70
2009,02,21,04,01,-1.70
2009,02,21,04,02,-1.70
2009,02,21,04,03,-1.70
2009,02,21,04,04,-1.70
2009,02,21,04,05,-1.70
2009,02,21,04,06,-1.70
2009,02,21,04,07,-1.70
2009,02,21,04,08,-1.70
2009,02,21,04,09,-1.70
2009,02,21,04,10,-1.70
2009,02,21,04,11,-1.70
2009,02,21,04,12,-1.70
2009,02,21,04,13,-1.70
2009,02,21,04,14,-1.70
2009,02,21,04,15,-1.70
2009,02,21,04,16,-1.70
2009,02,21,04,17,-1.70
2009,02,21,04,18,-1.70
2009,02,21,04,19,-1.70
2009,02,21,04,20,-1.70
2009,02,21,04,21,-1.70
2009,02,21,04,22,-1.80
2009,02,21,04,23,-1.70
2009,02,21,04,24,-1.80
2009,02,21,04,25,-1.80
2009,02,21,04,26,-1.80
2009,02,21,04,27,-1.80
2009,02,21,04,28,-1.80
2009,02,21,04,29,-1.80
2009,02,21,04,30,-1.80
2009,02,21,04,31,-1.80
2009,02,21,04,32,-1.80
2009,02,21,04,33,-1.80
2009,02,21,04,34,-1.80
2009,02,21,04,35,-1.80
2009,02,21,04,36,-1.80
2009,02,21,04,37,-1.70
2009,02,21,04,38,-1.70
2009,02,21,04,39,-1.70
2009,02,21,04,40,-1.70
2009,02,21,04,41,-1.70
2009,02,21,04,42,-1.70
2009,02,21,04,43,-1.70
2009,02,21,04,44,-1.70
2009,02,21,04,45,-1.70
2009,02,21,04,46,-1.70
2009,02,21,04,47,-1.70
2009,02,21,04,48,-1.70
2009,02,21,04,49,-1.70
2009,02,21,04,50,-1.70
2009,02,21,04,51,-1.70
2009,02,21,04,52,-1.70
2009,02,21,04,53,-1.80
2009,02,21,04,54,-1.80
2009,02,21,04,55,-1.80
2009,02,21,04,56,-1.70
2009,02,21,04,57,-1.70
2009,02,21,04,58,-1.70
2009,02,21,04,59,-1.70
2009,02,21,05,00,-1.70
2009,02,21,05,01,-1.70
2009,02,21,05,02,-1.70
2009,02,21,05,03,-1.70
2009,02,21,05,04,-1.70
2009,02,21,05,05,-1.70
2009,02,21,05,06,-1.70
2009,02,21,05,07,-1.70
2009,02,21,05,08,-1.70
2009,02,21,05,09,-1.70
2009,02,21,05,10,-1.70
2009,02,21,05,11,-1.80
2009,02,21,05,12,-1.80
2009,02,21,05,13,-1.80
2009,02,21,05,14,-1.80
2009,02,21,05,15,-1.80
2009,02,21,05,16,-1.80
2009,02,21,05,17,-1.80
2009,02,21,05,18,-1.80
2009,02,21,05,19,-1.80
2009,02,21,05,20,-1.80
2009,02,21,05,21,-1.80
2009,02,21,05,22,-1.80
2009,02,21,05,23,-1.80
2009,02,21,05,24,-1.80
2009,02,21,05,25,-1.80
2009,02,21,05,26,-1.80
2009,02,21,05,27,-1.80
2009,02,21,05,28,-1.80
2009,02,21,05,29,-1.80
2009,02,21,05,30,-1.80
2009,02,21,05,31,-1.80
2009,02,21,05,32,-1.80
2009,02,21,05,33,-1.80
2009,02,21,05,34,-1.80
2009,02,21,05,35,-1.80
2009,02,21,05,36,-1.80
2009,02,21,05,37,-1.80
2009,02,21,05,38,-1.80
2009,02,21,05,39,-1.80
2009,02,21,05,40,-1.80
2009,02,21,05,41,-1.90
2009,02,21,05,42,-1.90
2009,02,21,05,43,-1.90
2009,02,21,05,44,-1.90
2009,02,21,05,45,-1.90
2009,02,21,05,46,-1.90
2009,02,21,05,47,-1.90
2009,02,21,05,48,-1.90
2009,02,21,05,49,-1.90
2009,02,21,05,50,-1.90
2009,02,21,05,51,-1.90
2009,02,21,05,52,-1.90
2009,02,21,05,53,-1.90
2009,02,21,05,54,-1.90
2009,02,21,05,55,-1.90
2009,02,21,05,56,-1.90
2009,02,21,05,57,-1.90
2009,02,21,05,58,-1.90
2009,02,21,05,59,-1.90
2009,02,21,06,00,-1.90
2009,02,21,06,01,-1.90
2009,02,21,06,02,-1.90
2009,02,21,06,03,-1.90
2009,02,21,06,04,-1.90
2009,02,21,06,05,-1.90
2009,02,21,06,06,-1.90
2009,02,21,06,07,-1.90
2009,02,21,06,08,-1.90
2009,02,21,06,09,-1.90
2009,02,21,06,10,-1.90
2009,02,21,06,11,-1.90
2009,02,21,06,12,-1.90
2009,02,21,06,13,-1.90
2009,02,21,06,14,-1.90
2009,02,21,06,15,-1.90
2009,02,21,06,16,-1.90
2009,02,21,06,17,-1.90
2009,02,21,06,18,-1.90
2009,02,21,06,19,-1.90
2009,02,21,06,20,-1.90
2009,02,21,06,21,-1.90
2009,02,21,06,22,-1.90
2009,02,21,06,23,-1.90
2009,02,21,06,24,-1.90
2009,02,21,06,25,-1.90
2009,02,21,06,26,-1.90
2009,02,21,06,27,-1.90
2009,02,21,06,28,-1.90
2009,02,21,06,29,-1.90
2009,02,21,06,30,-1.90
2009,02,21,06,31,-1.90
2009,02,21,06,32,-1.90
2009,02,21,06,33,-1.90
2009,02,21,06,34,-1.90
2009,02,21,06,35,-1.90
2009,02,21,06,36,-1.90
2009,02,21,06,37,-1.90
2009,02,21,06,38,-1.90
2009,02,21,06,39,-1.90
2009,02,21,06,40,-1.90
2009,02,21,06,41,-2.00
2009,02,21,06,42,-2.00
2009,02,21,06,43,-2.00
2009,02,21,06,44,-2.00
2009,02,21,06,45,-2.00
2009,02,21,06,46,-2.00
2009,02,21,06,47,-2.00
2009,02,21,06,48,-2.00
2009,02,21,06,49,-2.00
2009,02,21,06,50,-2.00
2009,02,21,06,51,-2.00
2009,02,21,06,52,-2.00
2009,02,21,06,53,-2.00
2009,02,21,06,54,-2.00
2009,02,21,06,55,-2.00
2009,02,21,06,56,-2.00
2009,02,21,06,57,-2.00
2009,02,21,06,58,-2.00
2009,02,21,06,59,-2.00
2009,02,21,07,00,-2.00
2009,02,21,07,01,-2.00
2009,02,21,07,02,-2.10
2009,02,21,07,03,-2.10
2009,02,21,07,04,-2.10
2009,02,21,07,05,-2.10
2009,02,21,07,06,-2.10
2009,02,21,07,07,-2.10
2009,02,21,07,08,-2.10
2009,02,21,07,09,-2.10
2009,02,21,07,10,-2.10
2009,02,21,07,11,-2.00
2009,02,21,07,12,-2.00
2009,02,21,07,13,-2.10
2009,02,21,07,14,-2.00
2009,02,21,07,15,-2.00
2009,02,21,07,16,-2.10
2009,02,21,07,17,-2.10
2009,02,21,07,18,-2.10
2009,02,21,07,19,-2.10
2009,02,21,07,20,-2.10
2009,02,21,07,21,-2.10
2009,02,21,07,22,-2.10
2009,02,21,07,23,-2.10
2009,02,21,07,24,-2.10
2009,02,21,07,25,-2.10
2009,02,21,07,26,-2.10
2009,02,21,07,27,-2.10
2009,02,21,07,28,-2.10
2009,02,21,07,29,-2.10
2009,02,21,07,30,-2.10
2009,02,21,07,31,-2.10
2009,02,21,07,32,-2.10
2009,02,21,07,33,-2.10
2009,02,21,07,34,-2.10
2009,02,21,07,35,-2.10
2009,02,21,07,36,-2.10
2009,02,21,07,37,-2.10
2009,02,21,07,38,-2.10
2009,02,21,07,39,-2.10
2009,02,21,07,40,-2.10
2009,02,21,07,41,-2.10
2009,02,21,07,42,-2.10
2009,02,21,07,43,-2.10
2009,02,21,07,44,-2.10
2009,02,21,07,45,-2.10
2009,02,21,07,46,-2.10
2009,02,21,07,47,-2.10
2009,02,21,07,48,-2.10
2009,02,21,07,49,-2.10
2009,02,21,07,50,-2.00
2009,02,21,07,51,-2.10
2009,02,21,07,52,-2.00
2009,02,21,07,53,-2.10
2009,02,21,07,54,-2.00
2009,02,21,07,55,-2.00
2009,02,21,07,56,-2.00
2009,02,21,07,57,-2.00
2009,02,21,07,58,-2.00
2009,02,21,07,59,-2.00
2009,02,21,08,00,-2.00
2009,02,21,08,01,-2.00
2009,02,21,08,02,-2.00
2009,02,21,08,03,-2.00
2009,02,21,08,04,-2.00
2009,02,21,08,05,-2.00
2009,02,21,08,06,-2.00
2009,02,21,08,07,-2.00
2009,02,21,08,08,-2.00
2009,02,21,08,09,-1.90
2009,02,21,08,10,-1.90
2009,02,21,08,11,-1.90
2009,02,21,08,12,-1.90
2009,02,21,08,13,-1.90
2009,02,21,08,14,-1.90
2009,02,21,08,15,-1.90
2009,02,21,08,16,-1.90
2009,02,21,08,17,-1.90
2009,02,21,08,18,-1.90
2009,02,21,08,19,-1.90
2009,02,21,08,20,-1.90
2009,02,21,08,21,-1.90
2009,02,21,08,22,-1.90
2009,02,21,08,23,-1.90
2009,02,21,08,24,-1.90
2009,02,21,08,25,-1.90
2009,02,21,08,26,-1.90
2009,02,21,08,27,-1.90
2009,02,21,08,28,-1.80
2009,02,21,08,29,-1.80
2009,02,21,08,30,-1.80
2009,02,21,08,31,-1.80
2009,02,21,08,32,-1.80
2009,02,21,08,33,-1.80
2009,02,21,08,34,-1.80
2009,02,21,08,35,-1.80
2009,02,21,08,36,-1.80
2009,02,21,08,37,-1.80
2009,02,21,08,38,-1.80
2009,02,21,08,39,-1.80
2009,02,21,08,40,-1.80
2009,02,21,08,41,-1.80
2009,02,21,08,42,-1.80
2009,02,21,08,43,-1.80
2009,02,21,08,44,-1.80
2009,02,21,08,45,-1.80
2009,02,21,08,46,-1.70
2009,02,21,08,47,-1.70
2009,02,21,08,48,-1.70
2009,02,21,08,49,-1.70
2009,02,21,08,50,-1.70
2009,02,21,08,51,-1.70
2009,02,21,08,52,-1.60
2009,02,21,08,53,-1.60
2009,02,21,08,54,-1.60
2009,02,21,08,55,-1.60
2009,02,21,08,56,-1.50
2009,02,21,08,57,-1.50
2009,02,21,08,58,-1.50
2009,02,21,08,59,-1.40
2009,02,21,09,00,-1.40
2009,02,21,09,01,-1.40
2009,02,21,09,02,-1.40
2009,02,21,09,03,-1.40
2009,02,21,09,04,-1.40
2009,02,21,09,05,-1.40
2009,02,21,09,06,-1.30
2009,02,21,09,07,-1.30
2009,02,21,09,08,-1.30
2009,02,21,09,09,-1.30
2009,02,21,09,10,-1.30
2009,02,21,09,11,-1.30
2009,02,21,09,12,-1.30
2009,02,21,09,13,-1.20
2009,02,21,09,14,-1.20
2009,02,21,09,15,-1.20
2009,02,21,09,16,-1.10
2009,02,21,09,17,-1.10
2009,02,21,09,18,-1.10
2009,02,21,09,19,-1.00
2009,02,21,09,20,-1.00
2009,02,21,09,21,-0.90
2009,02,21,09,22,-0.90
2009,02,21,09,23,-0.90
2009,02,21,09,24,-0.80
2009,02,21,09,25,-0.80
2009,02,21,09,26,-0.80
2009,02,21,09,27,-0.70
2009,02,21,09,28,-0.70
2009,02,21,09,29,-0.70
2009,02,21,09,30,-0.60
2009,02,21,09,31,-0.60
2009,02,21,09,32,-0.60
2009,02,21,09,33,-0.50
2009,02,21,09,34,-0.50
2009,02,21,09,35,-0.40
2009,02,21,09,36,-0.40
2009,02,21,09,37,-0.40
2009,02,21,09,38,-0.30
2009,02,21,09,39,-0.30
2009,02,21,09,40,-0.30
2009,02,21,09,41,-0.30
2009,02,21,09,42,-0.20
2009,02,21,09,43,-0.20
2009,02,21,09,44,-0.20
2009,02,21,09,45,-0.20
2009,02,21,09,46,-0.20
2009,02,21,09,47,-0.10
2009,02,21,09,48,-0.10
2009,02,21,09,49,-0.10
2009,02,21,09,50,-0.10
2009,02,21,09,51,0.00
2009,02,21,09,52,0.00
2009,02,21,09,53,0.10
2009,02,21,09,54,0.10
2009,02,21,09,55,0.10
2009,02,21,09,56,0.20
2009,02,21,09,57,0.20
2009,02,21,09,58,0.20
2009,02,21,09,59,0.20
2009,02,21,10,00,0.30
2009,02,21,10,01,0.30
2009,02,21,10,02,0.30
2009,02,21,10,03,0.30
2009,02,21,10,04,0.40
2009,02,21,10,05,0.40
2009,02,21,10,06,0.40
2009,02,21,10,07,0.50
2009,02,21,10,08,0.50
2009,02,21,10,09,0.50
2009,02,21,10,10,0.60
2009,02,21,10,11,0.60
2009,02,21,10,12,0.60
2009,02,21,10,13,0.60
2009,02,21,10,14,0.70
2009,02,21,10,15,0.70
2009,02,21,10,16,0.80
2009,02,21,10,17,0.80
2009,02,21,10,18,0.80
2009,02,21,10,19,0.90
2009,02,21,10,20,1.00
2009,02,21,10,21,1.10
2009,02,21,10,22,1.20
2009,02,21,10,23,1.20
2009,02,21,10,24,1.30
2009,02,21,10,25,1.30
2009,02,21,10,26,1.30
2009,02,21,10,27,1.30
2009,02,21,10,28,1.40
2009,02,21,10,29,1.40
2009,02,21,10,30,1.50
2009,02,21,10,31,1.60
2009,02,21,10,32,1.60
2009,02,21,10,33,1.60
2009,02,21,10,34,1.70
2009,02,21,10,35,1.70
2009,02,21,10,36,1.80
2009,02,21,10,37,1.80
2009,02,21,10,38,1.90
2009,02,21,10,39,1.90
2009,02,21,10,40,1.90
2009,02,21,10,41,2.00
2009,02,21,10,42,2.00
2009,02,21,10,43,2.10
2009,02,21,10,44,2.10
2009,02,21,10,45,2.10
2009,02,21,10,46,2.10
2009,02,21,10,47,2.20
2009,02,21,10,48,2.20
2009,02,21,10,49,2.20
2009,02,21,10,50,2.30
2009,02,21,10,51,2.30
2009,02,21,10,52,2.30
2009,02,21,10,53,2.40
2009,02,21,10,54,2.40
2009,02,21,10,55,2.50
2009,02,21,10,56,2.50
2009,02,21,10,57,2.60
2009,02,21,10,58,2.60
2009,02,21,10,59,2.70
2009,02,21,11,00,2.70
2009,02,21,11,01,2.80
2009,02,21,11,02,2.80
2009,02,21,11,03,2.80
2009,02,21,11,04,2.80
2009,02,21,11,05,2.90
2009,02,21,11,06,3.00
2009,02,21,11,07,3.10
2009,02,21,11,08,3.10
2009,02,21,11,09,3.10
2009,02,21,11,10,3.20
2009,02,21,11,11,3.20
2009,02,21,11,12,3.20
2009,02,21,11,13,3.30
2009,02,21,11,14,3.30
2009,02,21,11,15,3.40
2009,02,21,11,16,3.40
2009,02,21,11,17,3.40
2009,02,21,11,18,3.50
2009,02,21,11,19,3.50
2009,02,21,11,20,3.60
2009,02,21,11,21,3.60
2009,02,21,11,22,3.70
2009,02,21,11,23,3.80
2009,02,21,11,24,3.90
2009,02,21,11,25,3.90
2009,02,21,11,26,4.00
2009,02,21,11,27,4.10
2009,02,21,11,28,4.20
2009,02,21,11,29,4.30
2009,02,21,11,30,4.40
2009,02,21,11,31,4.50
2009,02,21,11,32,4.60
2009,02,21,11,33,4.60
2009,02,21,11,34,4.70
2009,02,21,11,35,4.70
2009,02,21,11,36,4.80
2009,02,21,11,37,4.80
2009,02,21,11,38,4.80
2009,02,21,11,39,4.90
2009,02,21,11,40,4.90
2009,02,21,11,41,4.90
2009,02,21,11,42,5.00
2009,02,21,11,43,5.00
2009,02,21,11,44,5.00
2009,02,21,11,45,5.10
2009,02,21,11,46,5.10
2009,02,21,11,47,5.10
2009,02,21,11,48,5.10
2009,02,21,11,49,5.10
2009,02,21,11,50,5.20
2009,02,21,11,51,5.20
2009,02,21,11,52,5.20
2009,02,21,11,53,5.20
2009,02,21,11,54,5.30
2009,02,21,11,55,5.30
2009,02,21,11,56,5.40
2009,02,21,11,57,5.40
2009,02,21,11,58,5.40
2009,02,21,11,59,5.50
2009,02,21,12,00,5.50
2009,02,21,12,01,5.60
2009,02,21,12,02,5.60
2009,02,21,12,03,5.70
2009,02,21,12,04,5.70
2009,02,21,12,05,5.80
2009,02,21,12,06,5.80
2009,02,21,12,07,5.80
2009,02,21,12,08,5.80
2009,02,21,12,09,5.90
2009,02,21,12,10,5.90
2009,02,21,12,11,6.00
2009,02,21,12,12,6.00
2009,02,21,12,13,6.10
2009,02,21,12,14,6.10
2009,02,21,12,15,6.20
2009,02,21,12,16,6.20
2009,02,21,12,17,6.30
2009,02,21,12,18,6.30
2009,02,21,12,19,6.40
2009,02,21,12,20,6.40
2009,02,21,12,21,6.50
2009,02,21,12,22,6.60
2009,02,21,12,23,6.60
2009,02,21,12,24,6.70
2009,02,21,12,25,6.70
2009,02,21,12,26,6.80
2009,02,21,12,27,6.80
2009,02,21,12,28,6.80
2009,02,21,12,29,6.80
2009,02,21,12,30,6.90
2009,02,21,12,31,6.90
2009,02,21,12,32,6.90
2009,02,21,12,33,6.90
2009,02,21,12,34,7.00
2009,02,21,12,35,7.00
2009,02,21,12,36,7.10
2009,02,21,12,37,7.10
2009,02,21,12,38,7.10
2009,02,21,12,39,7.20
2009,02,21,12,40,7.20
2009,02,21,12,41,7.20
2009,02,21,12,42,7.20
2009,02,21,12,43,7.20
2009,02,21,12,44,7.30
2009,02,21,12,45,7.30
2009,02,21,12,46,7.30
2009,02,21,12,47,7.30
2009,02,21,12,48,7.40
2009,02,21,12,49,7.50
2009,02,21,12,50,7.50
2009,02,21,12,51,7.60
2009,02,21,12,52,7.70
2009,02,21,12,53,7.70
2009,02,21,12,54,7.80
2009,02,21,12,55,7.80
2009,02,21,12,56,7.80
2009,02,21,12,57,7.80
2009,02,21,12,58,7.80
2009,02,21,12,59,7.80
2009,02,21,13,00,7.80
2009,02,21,13,01,7.80
2009,02,21,13,02,7.90
2009,02,21,13,03,7.90
2009,02,21,13,04,7.90
2009,02,21,13,05,7.90
2009,02,21,13,06,8.00
2009,02,21,13,07,8.00
2009,02,21,13,08,8.00
2009,02,21,13,09,8.10
2009,02,21,13,10,8.10
2009,02,21,13,11,8.10
2009,02,21,13,12,8.10
2009,02,21,13,13,8.10
2009,02,21,13,14,8.10
2009,02,21,13,15,8.20
2009,02,21,13,16,8.20
2009,02,21,13,17,8.20
2009,02,21,13,18,8.20
2009,02,21,13,19,8.20
2009,02,21,13,20,8.20
2009,02,21,13,21,8.20
2009,02,21,13,22,8.20
2009,02,21,13,23,8.20
2009,02,21,13,24,8.20
2009,02,21,13,25,8.20
2009,02,21,13,26,8.20
2009,02,21,13,27,8.20
2009,02,21,13,28,8.20
2009,02,21,13,29,8.30
2009,02,21,13,30,8.30
2009,02,21,13,31,8.40
2009,02,21,13,32,8.40
2009,02,21,13,33,8.40
2009,02,21,13,34,8.40
2009,02,21,13,35,8.40
2009,02,21,13,36,8.40
2009,02,21,13,37,8.40
2009,02,21,13,38,8.40
2009,02,21,13,39,8.40
2009,02,21,13,40,8.40
2009,02,21,13,41,8.40
2009,02,21,13,42,8.40
2009,02,21,13,43,8.40
2009,02,21,13,44,8.40
2009,02,21,13,45,8.40
2009,02,21,13,46,8.40
2009,02,21,13,47,8.40
2009,02,21,13,48,8.40
2009,02,21,13,49,8.40
2009,02,21,13,50,8.40
2009,02,21,13,51,8.40
2009,02,21,13,52,8.40
2009,02,21,13,53,8.40
2009,02,21,13,54,8.50
2009,02,21,13,55,8.50
2009,02,21,13,56,8.50
2009,02,21,13,57,8.50
2009,02,21,13,58,8.50
2009,02,21,13,59,8.50
2009,02,21,14,00,8.50
2009,02,21,14,01,8.50
2009,02,21,14,02,8.50
2009,02,21,14,03,8.50
2009,02,21,14,04,8.50
2009,02,21,14,05,8.60
2009,02,21,14,06,8.60
2009,02,21,14,07,8.60
2009,02,21,14,08,8.60
2009,02,21,14,09,8.60
2009,02,21,14,10,8.60
2009,02,21,14,11,8.60
2009,02,21,14,12,8.60
2009,02,21,14,13,8.60
2009,02,21,14,14,8.70
2009,02,21,14,15,8.70
2009,02,21,14,16,8.70
2009,02,21,14,17,8.70
2009,02,21,14,18,8.70
2009,02,21,14,19,8.80
2009,02,21,14,20,8.80
2009,02,21,14,21,8.80
2009,02,21,14,22,8.90
2009,02,21,14,23,8.90
2009,02,21,14,24,9.00
2009,02,21,14,25,9.10
2009,02,21,14,26,9.10
2009,02,21,14,27,9.20
2009,02,21,14,28,9.20
2009,02,21,14,29,9.30
2009,02,21,14,30,9.30
2009,02,21,14,31,9.40
2009,02,21,14,32,9.40
2009,02,21,14,33,9.50
2009,02,21,14,34,9.60
2009,02,21,14,35,9.60
2009,02,21,14,36,9.70
2009,02,21,14,37,9.80
2009,02,21,14,38,9.90
2009,02,21,14,39,10.00
2009,02,21,14,40,10.10
2009,02,21,14,41,10.10
2009,02,21,14,42,10.20
2009,02,21,14,43,10.20
2009,02,21,14,44,10.20
2009,02,21,14,45,10.30
2009,02,21,14,46,10.30
2009,02,21,14,47,10.30
2009,02,21,14,48,10.30
2009,02,21,14,49,10.40
2009,02,21,14,50,10.40
2009,02,21,14,51,10.40
2009,02,21,14,52,10.40
2009,02,21,14,53,10.50
2009,02,21,14,54,10.50
2009,02,21,14,55,10.60
2009,02,21,14,56,10.70
2009,02,21,14,57,10.80
2009,02,21,14,58,10.80
2009,02,21,14,59,10.80
2009,02,21,15,00,10.80
2009,02,21,15,01,10.80
2009,02,21,15,02,10.80
2009,02,21,15,03,10.80
2009,02,21,15,04,10.80
2009,02,21,15,05,10.80
2009,02,21,15,06,10.80
2009,02,21,15,07,10.80
2009,02,21,15,08,10.80
2009,02,21,15,09,10.70
2009,02,21,15,10,10.70
2009,02,21,15,11,10.70
2009,02,21,15,12,10.70
2009,02,21,15,13,10.70
2009,02,21,15,14,10.70
2009,02,21,15,15,10.70
2009,02,21,15,16,10.70
2009,02,21,15,17,10.70
2009,02,21,15,18,10.70
2009,02,21,15,19,10.70
2009,02,21,15,20,10.70
2009,02,21,15,21,10.60
2009,02,21,15,22,10.60
2009,02,21,15,23,10.60
2009,02,21,15,24,10.60
2009,02,21,15,25,10.60
2009,02,21,15,26,10.50
2009,02,21,15,27,10.50
2009,02,21,15,28,10.50
2009,02,21,15,29,10.50
2009,02,21,15,30,10.50
2009,02,21,15,31,10.40
2009,02,21,15,32,10.40
2009,02,21,15,33,10.40
2009,02,21,15,34,10.30
2009,02,21,15,35,10.30
2009,02,21,15,36,10.30
2009,02,21,15,37,10.20
2009,02,21,15,38,10.10
2009,02,21,15,39,10.10
2009,02,21,15,40,10.00
2009,02,21,15,41,10.00
2009,02,21,15,42,9.90
2009,02,21,15,43,9.90
2009,02,21,15,44,9.90
2009,02,21,15,45,9.80
2009,02,21,15,46,9.80
2009,02,21,15,47,9.80
2009,02,21,15,48,9.80
2009,02,21,15,49,9.80
2009,02,21,15,50,9.80
2009,02,21,15,51,9.80
2009,02,21,15,52,9.80
2009,02,21,15,53,9.80
2009,02,21,15,54,9.80
2009,02,21,15,55,9.80
2009,02,21,15,56,9.80
2009,02,21,15,57,9.80
2009,02,21,15,58,9.80
2009,02,21,15,59,9.80
2009,02,21,16,00,9.70
2009,02,21,16,01,9.70
2009,02,21,16,02,9.70
2009,02,21,16,03,9.70
2009,02,21,16,04,9.70
2009,02,21,16,05,9.70
2009,02,21,16,06,9.60
2009,02,21,16,07,9.60
2009,02,21,16,08,9.60
2009,02,21,16,09,9.60
2009,02,21,16,10,9.60
2009,02,21,16,11,9.50
2009,02,21,16,12,9.50
2009,02,21,16,13,9.40
2009,02,21,16,14,9.40
2009,02,21,16,15,9.40
2009,02,21,16,16,9.30
2009,02,21,16,17,9.30
2009,02,21,16,18,9.30
2009,02,21,16,19,9.20
2009,02,21,16,20,9.20
2009,02,21,16,21,9.20
2009,02,21,16,22,9.10
2009,02,21,16,23,9.10
2009,02,21,16,24,9.10
2009,02,21,16,25,9.10
2009,02,21,16,26,9.00
2009,02,21,16,27,9.00
2009,02,21,16,28,8.90
2009,02,21,16,29,8.90
2009,02,21,16,30,8.90
2009,02,21,16,31,8.90
2009,02,21,16,32,8.90
2009,02,21,16,33,8.90
2009,02,21,16,34,8.90
2009,02,21,16,35,8.80
2009,02,21,16,36,8.80
2009,02,21,16,37,8.80
2009,02,21,16,38,8.80
2009,02,21,16,39,8.80
2009,02,21,16,40,8.80
2009,02,21,16,41,8.80
2009,02,21,16,42,8.70
2009,02,21,16,43,8.70
2009,02,21,16,44,8.70
2009,02,21,16,45,8.70
2009,02,21,16,46,8.70
2009,02,21,16,47,8.70
2009,02,21,16,48,8.60
2009,02,21,16,49,8.60
2009,02,21,16,50,8.60
2009,02,21,16,51,8.50
2009,02,21,16,52,8.50
2009,02,21,16,53,8.40
2009,02,21,16,54,8.40
2009,02,21,16,55,8.30
2009,02,21,16,56,8.30
2009,02,21,16,57,8.20
2009,02,21,16,58,8.20
2009,02,21,16,59,8.10
2009,02,21,17,00,8.10
2009,02,21,17,01,8.00
2009,02,21,17,02,7.90
2009,02,21,17,03,7.90
2009,02,21,17,04,7.80
2009,02,21,17,05,7.80
2009,02,21,17,06,7.70
2009,02,21,17,07,7.70
2009,02,21,17,08,7.60
2009,02,21,17,09,7.60
2009,02,21,17,10,7.50
2009,02,21,17,11,7.50
2009,02,21,17,12,7.40
2009,02,21,17,13,7.40
2009,02,21,17,14,7.30
2009,02,21,17,15,7.30
2009,02,21,17,16,7.20
2009,02,21,17,17,7.20
2009,02,21,17,18,7.20
2009,02,21,17,19,7.10
2009,02,21,17,20,7.10
2009,02,21,17,21,7.10
2009,02,21,17,22,7.00
2009,02,21,17,23,7.00
2009,02,21,17,24,6.90
2009,02,21,17,25,6.90
2009,02,21,17,26,6.80
2009,02,21,17,27,6.80
2009,02,21,17,28,6.80
2009,02,21,17,29,6.70
2009,02,21,17,30,6.70
2009,02,21,17,31,6.60
2009,02,21,17,32,6.60
2009,02,21,17,33,6.60
2009,02,21,17,34,6.50
2009,02,21,17,35,6.50
2009,02,21,17,36,6.40
2009,02,21,17,37,6.40